Location: McFarlands Corners
(41.4117°N, 81.3382°W)
Time: 18:45:08
(UTC+00:00)

A-11 Canister half - Visible Passes

Search period start: 18 February 2026 00:00
Search period end: 28 February 2026 00:00
Orbit: 1512 x 1687 km, 47.2° (Epoch: 18 February)

Date Brightness Start Highest point End Pass type
(mag) Time Alt. Az. Time Alt. Az. Time Alt. Az.
18 Feb 9.6 00:41:54 10° SSW 00:50:47 36° SE 00:53:32 31° ESE visible
18 Feb 9.6 02:44:52 10° WSW 02:51:46 50° WSW 02:51:46 50° WSW visible
18 Feb 11.1 07:16:11 11° ESE 07:16:11 11° ESE 07:16:19 10° ESE visible
18 Feb 9.6 09:14:26 39° S 09:14:26 39° S 09:20:21 10° SSE visible
18 Feb 10.4 11:12:40 11° WSW 11:14:28 12° WSW 11:17:43 10° SW visible
19 Feb 9.8 00:19:06 10° S 00:27:47 33° SE 00:32:27 23° E visible
19 Feb 9.1 02:21:47 10° WSW 02:30:41 72° SW 02:30:41 72° SW visible
19 Feb 11.0 04:27:36 10° W 04:28:55 15° W 04:28:55 15° W visible
19 Feb 10.0 08:53:21 29° SSE 08:53:21 29° SSE 08:57:28 10° SSE visible
19 Feb 10.3 10:51:36 14° WSW 10:51:36 14° WSW 10:55:42 10° SSW visible
19 Feb 9.9 23:56:19 10° S 00:04:47 31° SE 00:11:17 16° E visible
20 Feb 8.9 01:58:44 10° SW 02:08:55 82° SSE 02:09:30 79° ESE visible
20 Feb 10.6 04:04:27 10° W 04:07:45 24° W 04:07:45 24° W visible
20 Feb 10.5 08:32:19 19° SSE 08:32:19 19° SSE 08:34:34 10° SE visible
20 Feb 10.4 10:30:34 14° SW 10:30:34 14° SW 10:33:30 10° SSW visible
20 Feb 10.0 23:33:34 10° S 23:41:49 29° SE 23:49:59 10° ENE visible
21 Feb 9.0 01:35:40 10° SW 01:45:51 79° SSE 01:48:16 58° ENE visible
21 Feb 10.2 03:41:17 10° W 03:46:30 34° WNW 03:46:30 34° WNW visible
21 Feb 11.0 08:11:20 11° SE 08:11:20 11° SE 08:11:39 10° SE visible
21 Feb 10.5 10:09:35 13° SSW 10:09:35 13° SSW 10:11:10 10° SSW visible
22 Feb 9.0 01:12:36 10° SW 01:22:47 76° SSE 01:26:57 41° ENE visible
22 Feb 9.7 03:18:07 10° W 03:25:10 48° WNW 03:25:10 48° WNW visible
22 Feb 10.7 09:48:37 10° SSW 09:48:37 10° SSW 09:48:44 10° SSW visible
23 Feb 9.1 00:49:35 10° SW 00:59:42 73° SE 01:05:33 29° ENE visible
23 Feb 9.4 02:54:58 10° W 03:03:46 62° NW 03:03:46 62° NW visible
23 Feb 11.1 05:01:07 10° WNW 05:01:59 13° WNW 05:01:59 13° WNW visible
24 Feb 9.1 00:26:34 10° SW 00:36:39 69° SE 00:44:05 21° ENE visible
24 Feb 9.2 02:31:49 10° W 02:41:59 68° NNW 02:42:18 68° N visible
24 Feb 10.8 04:37:58 10° WNW 04:40:31 20° WNW 04:40:31 20° WNW visible
25 Feb 9.2 00:03:33 10° SW 00:13:35 66° SE 00:22:34 14° ENE visible
25 Feb 9.2 02:08:40 10° W 02:18:51 69° NNW 02:20:46 59° NE visible
25 Feb 10.5 04:14:51 10° WNW 04:18:58 28° WNW 04:18:58 28° WNW visible
25 Feb 9.3 23:40:34 10° SW 23:50:32 63° SE 00:00:28 10° ENE visible
26 Feb 9.2 01:45:31 10° W 01:55:43 71° NNW 01:59:10 46° NE visible
26 Feb 10.1 03:51:43 10° WNW 03:57:23 38° WNW 03:57:23 38° WNW visible
27 Feb 9.2 01:22:22 10° WSW 01:32:35 72° NNW 01:37:32 35° ENE visible
27 Feb 9.7 03:28:34 10° WNW 03:35:44 48° NW 03:35:44 48° NW visible
